PH18K EBAW-EBAW

Flight info

Callsign PH18K
Flight time 0h 5m
Altitude 4000
Route NIK
Aircraft DA62/L-SDFGRY/C

Departure

Time 2026-04-27 18:27
Airport Antwerp International Airport (Deurne) (EBAW)

Arrival

Time 2026-04-27 18:33
Airport Antwerp International Airport (Deurne) (EBAW)
Time Latitude Longitude Altitude Speed Heading
2026-04-27 18:15 51.19064 4.45354 33 ft 0 kts 109°
2026-04-27 18:19 51.19064 4.45355 33 ft 1 kts 102°
2026-04-27 18:20 51.19064 4.45359 33 ft 0 kts 82°
2026-04-27 18:20 51.19062 4.45344 33 ft 0 kts 79°
2026-04-27 18:20 51.19065 4.45351 33 ft 1 kts 32°
2026-04-27 18:21 51.19082 4.45345 33 ft 3 kts 336°
2026-04-27 18:21 51.19090 4.45343 33 ft 0 kts
2026-04-27 18:22 51.19094 4.45344 33 ft 3 kts 17°
2026-04-27 18:22 51.19100 4.45348 33 ft 0 kts 24°
2026-04-27 18:23 51.19147 4.45372 34 ft 16 kts
2026-04-27 18:23 51.19204 4.45401 36 ft 8 kts 106°
2026-04-27 18:23 51.19202 4.45414 36 ft 0 kts 110°
2026-04-27 18:24 51.19201 4.45416 36 ft 3 kts 110°
2026-04-27 18:24 51.19201 4.45418 35 ft 0 kts 110°
2026-04-27 18:25 51.19125 4.45759 37 ft 65 kts 110°
2026-04-27 18:26 51.18926 4.46674 44 ft 105 kts 113°
2026-04-27 18:26 51.18630 4.47779 201 ft 100 kts 108°
2026-04-27 18:26 51.18410 4.48731 290 ft 97 kts 83°
2026-04-27 18:26 51.18873 4.49396 520 ft 98 kts
2026-04-27 18:27 51.19412 4.48503 468 ft 136 kts 300°
2026-04-27 18:27 51.19816 4.47087 482 ft 140 kts 298°
2026-04-27 18:27 51.20273 4.45718 632 ft 142 kts 302°
2026-04-27 18:27 51.20733 4.44296 718 ft 146 kts 302°
2026-04-27 18:28 51.20600 4.42758 737 ft 138 kts 227°
2026-04-27 18:28 51.19896 4.42698 572 ft 108 kts 131°
2026-04-27 18:28 51.19563 4.43760 352 ft 104 kts 105°
2026-04-27 18:28 51.19340 4.44793 170 ft 105 kts 104°
2026-04-27 18:29 51.19079 4.45941 44 ft 111 kts 106°
2026-04-27 18:29 51.18831 4.46982 89 ft 105 kts 109°
2026-04-27 18:29 51.18588 4.48072 464 ft 98 kts 108°
2026-04-27 18:29 51.18083 4.48828 709 ft 123 kts 175°
2026-04-27 18:30 51.17325 4.48131 827 ft 137 kts 246°
2026-04-27 18:30 51.17471 4.46628 773 ft 145 kts 292°
2026-04-27 18:30 51.17822 4.45103 740 ft 151 kts 296°
2026-04-27 18:30 51.18246 4.43553 726 ft 152 kts 299°
2026-04-27 18:31 51.18678 4.42097 743 ft 128 kts 299°
2026-04-27 18:31 51.19028 4.40913 637 ft 122 kts 302°
2026-04-27 18:31 51.19623 4.40305 782 ft 104 kts 24°
2026-04-27 18:31 51.19985 4.41254 672 ft 102 kts 74°
2026-04-27 18:32 51.19894 4.42317 463 ft 93 kts 104°
2026-04-27 18:32 51.19674 4.43288 363 ft 100 kts 103°
2026-04-27 18:32 51.19440 4.44333 206 ft 97 kts 101°
2026-04-27 18:32 51.19217 4.45334 52 ft 97 kts 105°
2026-04-27 18:33 51.19045 4.46153 15 ft 59 kts 107°
2026-04-27 18:33 51.18934 4.46644 39 ft 36 kts 116°
2026-04-27 18:33 51.18869 4.46908 42 ft 23 kts 114°
2026-04-27 18:33 51.18821 4.47100 36 ft 13 kts 116°
2026-04-27 18:34 51.18746 4.47102 34 ft 13 kts 177°
2026-04-27 18:34 51.18670 4.47074 33 ft 12 kts 231°
2026-04-27 18:34 51.18620 4.46958 33 ft 13 kts 238°
2026-04-27 18:34 51.18581 4.46824 33 ft 14 kts 256°
2026-04-27 18:35 51.18578 4.46669 33 ft 15 kts 276°
2026-04-27 18:35 51.18601 4.46501 33 ft 16 kts 284°
2026-04-27 18:35 51.18631 4.46308 33 ft 21 kts 280°
2026-04-27 18:35 51.18666 4.46097 33 ft 18 kts 284°
2026-04-27 18:36 51.18692 4.45914 33 ft 16 kts 289°
2026-04-27 18:36 51.18720 4.45751 33 ft 15 kts 283°
2026-04-27 18:36 51.18743 4.45595 33 ft 14 kts 284°
2026-04-27 18:36 51.18782 4.45483 33 ft 10 kts 348°
2026-04-27 18:37 51.18840 4.45456 33 ft 8 kts 350°
2026-04-27 18:37 51.18888 4.45430 33 ft 6 kts 320°
2026-04-27 18:37 51.18884 4.45352 33 ft 7 kts 290°
2026-04-27 18:37 51.18923 4.45317 33 ft 6 kts 325°
2026-04-27 18:38 51.18926 4.45314 33 ft 0 kts 326°
2026-04-27 18:44 51.18945 4.45304 33 ft 8 kts 17°
2026-04-27 18:45 51.18972 4.45431 33 ft 17 kts 59°
2026-04-27 18:45 51.19035 4.45511 33 ft 9 kts 343°
2026-04-27 18:45 51.19093 4.45440 33 ft 14 kts 322°
2026-04-27 18:45 51.19171 4.45342 34 ft 13 kts 320°
2026-04-27 18:46 51.19216 4.45351 36 ft 6 kts 105°
2026-04-27 18:46 51.19128 4.45786 37 ft 72 kts 109°
2026-04-27 18:46 51.18901 4.46737 97 ft 104 kts 106°
2026-04-27 18:46 51.18631 4.47866 271 ft 114 kts 105°
2026-04-27 18:47 51.18348 4.49107 498 ft 120 kts 107°
2026-04-27 18:47 51.18050 4.50372 731 ft 124 kts 106°
2026-04-27 18:47 51.17747 4.51682 963 ft 127 kts 105°
2026-04-27 18:47 51.17439 4.53002 1191 ft 126 kts 105°
2026-04-27 18:48 51.17143 4.54295 1416 ft 123 kts 105°
2026-04-27 18:48 51.16877 4.55617 1484 ft 131 kts 96°
2026-04-27 18:48 51.16805 4.57108 1488 ft 138 kts 90°
2026-04-27 18:48 51.16734 4.58657 1493 ft 143 kts 90°
2026-04-27 18:49 51.16664 4.60259 1494 ft 147 kts 90°
2026-04-27 18:49 51.16595 4.61888 1493 ft 147 kts 90°
2026-04-27 18:49 51.16528 4.63506 1491 ft 146 kts 90°
2026-04-27 18:49 51.16460 4.65121 1492 ft 146 kts 90°
2026-04-27 18:50 51.16393 4.66721 1491 ft 147 kts 90°
2026-04-27 18:50 51.16331 4.68342 1488 ft 146 kts 90°
2026-04-27 18:50 51.16264 4.69956 1473 ft 146 kts 90°
2026-04-27 18:50 51.16191 4.71579 1474 ft 147 kts 91°
2026-04-27 18:51 51.16126 4.73207 1474 ft 147 kts 90°
2026-04-27 18:51 51.16074 4.74828 1481 ft 146 kts 90°
2026-04-27 18:51 51.16009 4.76449 1479 ft 146 kts 90°
2026-04-27 18:51 51.15944 4.78041 1480 ft 146 kts 90°
2026-04-27 18:52 51.15885 4.79652 1477 ft 145 kts 86°
2026-04-27 18:52 51.16302 4.81040 1464 ft 143 kts 40°
2026-04-27 18:52 51.17206 4.81699 1468 ft 143 kts 22°
2026-04-27 18:53 51.18751 4.82640 1466 ft 143 kts 26°
2026-04-27 18:53 51.19620 4.83385 1467 ft 142 kts 31°
2026-04-27 18:53 51.20486 4.84161 1468 ft 143 kts 34°
2026-04-27 18:53 51.21302 4.85069 1471 ft 142 kts 36°
2026-04-27 18:54 51.22108 4.85995 1471 ft 143 kts 37°
2026-04-27 18:54 51.22914 4.86903 1468 ft 143 kts 36°
2026-04-27 18:54 51.23728 4.87817 1469 ft 142 kts 36°
2026-04-27 18:54 51.24534 4.88740 1465 ft 143 kts 37°
2026-04-27 18:55 51.25343 4.89667 1471 ft 143 kts 37°
2026-04-27 18:55 51.26151 4.90594 1472 ft 143 kts 36°
2026-04-27 18:55 51.26959 4.91528 1472 ft 144 kts 37°
2026-04-27 18:55 51.27773 4.92456 1470 ft 144 kts 37°
2026-04-27 18:56 51.28585 4.93380 1469 ft 143 kts 36°
2026-04-27 18:56 51.29396 4.94318 1470 ft 144 kts 37°
2026-04-27 18:56 51.30210 4.95249 1468 ft 144 kts 36°
2026-04-27 18:56 51.31022 4.96178 1468 ft 143 kts 37°
2026-04-27 18:57 51.31839 4.97107 1461 ft 144 kts 37°
2026-04-27 18:57 51.32654 4.98032 1460 ft 143 kts 36°
2026-04-27 18:57 51.33469 4.98962 1477 ft 145 kts 36°
2026-04-27 18:57 51.34277 4.99890 1477 ft 145 kts 37°
2026-04-27 18:58 51.35092 5.00825 1477 ft 143 kts 37°
2026-04-27 18:58 51.35891 5.01779 1476 ft 144 kts 42°
2026-04-27 18:58 51.36603 5.02903 1476 ft 143 kts 45°
2026-04-27 18:58 51.37307 5.04028 1477 ft 143 kts 45°
2026-04-27 18:59 51.38008 5.05168 1476 ft 144 kts 45°
2026-04-27 18:59 51.38710 5.06306 1478 ft 143 kts 45°
2026-04-27 18:59 51.39414 5.07437 1478 ft 143 kts 46°
2026-04-27 18:59 51.40120 5.08571 1462 ft 144 kts 46°
2026-04-27 19:00 51.40824 5.09714 1459 ft 144 kts 47°
2026-04-27 19:00 51.41190 5.11183 1464 ft 144 kts 77°
2026-04-27 19:00 51.41363 5.12763 1464 ft 144 kts 77°
2026-04-27 19:00 51.41533 5.14344 1463 ft 144 kts 77°
2026-04-27 19:01 51.41701 5.15916 1467 ft 143 kts 77°
2026-04-27 19:01 51.41867 5.17485 1483 ft 142 kts 78°
2026-04-27 19:01 51.42031 5.19030 1485 ft 142 kts 78°
2026-04-27 19:01 51.42201 5.20594 1432 ft 143 kts 77°
2026-04-27 19:02 51.42208 5.22134 1293 ft 138 kts 98°
2026-04-27 19:02 51.41938 5.23587 1160 ft 134 kts 105°
2026-04-27 19:02 51.41575 5.24944 1032 ft 131 kts 108°
2026-04-27 19:02 51.41223 5.26256 994 ft 124 kts 107°
2026-04-27 19:03 51.40888 5.27490 991 ft 119 kts 110°
2026-04-27 19:03 51.40612 5.28710 991 ft 114 kts 94°
2026-04-27 19:03 51.40580 5.29995 902 ft 117 kts 89°
2026-04-27 19:03 51.40563 5.30847 812 ft 113 kts 86°
2026-04-27 19:04 51.40808 5.32346 713 ft 99 kts 58°
2026-04-27 19:04 51.41280 5.33160 536 ft 99 kts 44°
2026-04-27 19:04 51.41767 5.33820 427 ft 83 kts 37°
2026-04-27 19:04 51.42263 5.34377 463 ft 94 kts 37°
2026-04-27 19:05 51.42752 5.34921 320 ft 85 kts 37°
2026-04-27 19:05 51.43268 5.35482 279 ft 94 kts 36°
2026-04-27 19:05 51.43787 5.36077 159 ft 97 kts 35°
2026-04-27 19:05 51.44285 5.36642 72 ft 74 kts 36°
2026-04-27 19:06 51.44693 5.37093 75 ft 86 kts 35°
2026-04-27 19:06 51.45221 5.37661 317 ft 92 kts 34°
2026-04-27 19:06 51.45749 5.38257 612 ft 93 kts 37°
2026-04-27 19:06 51.46270 5.38864 928 ft 92 kts 35°
2026-04-27 19:07 51.46855 5.39511 1047 ft 111 kts 35°
2026-04-27 19:07 51.47573 5.40206 989 ft 132 kts 20°
2026-04-27 19:07 51.48525 5.39938 853 ft 154 kts 330°
2026-04-27 19:07 51.49109 5.38530 885 ft 160 kts 285°
2026-04-27 19:08 51.48881 5.36829 998 ft 161 kts 237°
2026-04-27 19:08 51.48043 5.35622 1012 ft 164 kts 216°
2026-04-27 19:08 51.47098 5.34604 1012 ft 162 kts 211°
2026-04-27 19:08 51.46144 5.33644 938 ft 162 kts 211°
2026-04-27 19:09 51.45183 5.32686 854 ft 162 kts 211°
2026-04-27 19:09 51.44189 5.32133 803 ft 137 kts 172°
2026-04-27 19:09 51.43507 5.32786 810 ft 105 kts 112°
2026-04-27 19:09 51.43265 5.33953 656 ft 115 kts 103°
2026-04-27 19:10 51.43113 5.34991 418 ft 87 kts 82°
2026-04-27 19:10 51.43514 5.35786 252 ft 99 kts 39°
2026-04-27 19:10 51.44105 5.36438 102 ft 104 kts 37°
2026-04-27 19:10 51.44428 5.36807 71 ft 72 kts 33°
2026-04-27 19:11 51.45033 5.37466 164 ft 93 kts 34°
2026-04-27 19:11 51.45605 5.38059 351 ft 99 kts 33°
2026-04-27 19:11 51.46172 5.38679 586 ft 102 kts 34°
2026-04-27 19:11 51.46773 5.39342 812 ft 106 kts 35°
2026-04-27 19:12 51.47414 5.39972 1007 ft 115 kts 19°
2026-04-27 19:12 51.48241 5.39607 1007 ft 141 kts 323°
2026-04-27 19:12 51.48646 5.38110 1014 ft 157 kts 280°
2026-04-27 19:12 51.48402 5.36386 1008 ft 166 kts 237°
2026-04-27 19:13 51.47494 5.35264 1010 ft 166 kts 208°
2026-04-27 19:13 51.46487 5.34360 1012 ft 166 kts 209°
2026-04-27 19:13 51.45788 5.32931 1003 ft 166 kts 256°
2026-04-27 19:13 51.45929 5.31178 1013 ft 158 kts 305°
2026-04-27 19:14 51.46772 5.30219 1008 ft 147 kts 354°
2026-04-27 19:14 51.47695 5.30635 1008 ft 140 kts 43°
2026-04-27 19:14 51.48026 5.32062 1005 ft 145 kts 91°
2026-04-27 19:14 51.47496 5.33440 1013 ft 155 kts 141°
2026-04-27 19:15 51.46425 5.33746 1009 ft 165 kts 189°
2026-04-27 19:15 51.45384 5.32935 1011 ft 168 kts 208°
2026-04-27 19:15 51.44385 5.31999 1020 ft 165 kts 208°
2026-04-27 19:15 51.43393 5.31058 1019 ft 165 kts 210°
2026-04-27 19:16 51.42374 5.30210 1016 ft 165 kts 193°
2026-04-27 19:16 51.41636 5.30215 1007 ft 158 kts 161°
2026-04-27 19:16 51.40860 5.31578 1006 ft 112 kts 88°
2026-04-27 19:16 51.41081 5.32676 919 ft 101 kts 62°
2026-04-27 19:17 51.41532 5.33516 736 ft 100 kts 41°
2026-04-27 19:17 51.42040 5.34111 525 ft 85 kts 39°
2026-04-27 19:17 51.42510 5.34649 419 ft 82 kts 37°
2026-04-27 19:17 51.43011 5.35212 304 ft 93 kts 34°
2026-04-27 19:18 51.43517 5.35791 225 ft 87 kts 41°
2026-04-27 19:18 51.44018 5.36339 103 ft 86 kts 37°
2026-04-27 19:18 51.44453 5.36836 70 ft 66 kts 37°
2026-04-27 19:18 51.44928 5.37349 95 ft 97 kts 34°
2026-04-27 19:19 51.45484 5.37973 418 ft 95 kts 36°
2026-04-27 19:19 51.46001 5.38645 648 ft 101 kts 38°
2026-04-27 19:19 51.46579 5.39367 854 ft 108 kts 39°
2026-04-27 19:19 51.47195 5.40120 1011 ft 117 kts 40°
2026-04-27 19:20 51.47466 5.41386 1009 ft 135 kts 96°
2026-04-27 19:20 51.46881 5.42614 1008 ft 152 kts 147°
2026-04-27 19:20 51.45811 5.42866 1011 ft 160 kts 176°
2026-04-27 19:20 51.44688 5.42851 1017 ft 162 kts 177°
2026-04-27 19:21 51.43559 5.42846 1018 ft 162 kts 176°
2026-04-27 19:21 51.42426 5.42849 1020 ft 163 kts 177°
2026-04-27 19:21 51.41314 5.42849 1024 ft 160 kts 176°
2026-04-27 19:21 51.40216 5.42844 1107 ft 157 kts 176°
2026-04-27 19:22 51.39125 5.42829 1183 ft 156 kts 176°
2026-04-27 19:22 51.38039 5.42803 1259 ft 156 kts 176°
2026-04-27 19:22 51.36952 5.42764 1336 ft 156 kts 176°
2026-04-27 19:22 51.35865 5.42722 1413 ft 156 kts 177°
2026-04-27 19:23 51.34779 5.42689 1497 ft 156 kts 177°
2026-04-27 19:23 51.33695 5.42662 1511 ft 160 kts 176°
2026-04-27 19:23 51.32575 5.42623 1488 ft 161 kts 176°
2026-04-27 19:23 51.31447 5.42588 1488 ft 162 kts 177°
2026-04-27 19:24 51.30315 5.42562 1488 ft 163 kts 176°
2026-04-27 19:24 51.29179 5.42523 1481 ft 163 kts 176°
2026-04-27 19:24 51.28044 5.42480 1481 ft 163 kts 177°
2026-04-27 19:24 51.26907 5.42456 1488 ft 163 kts 176°
2026-04-27 19:25 51.25772 5.42439 1486 ft 163 kts 176°
2026-04-27 19:25 51.24635 5.42411 1486 ft 163 kts 178°
2026-04-27 19:25 51.23532 5.41979 1466 ft 168 kts 194°
2026-04-27 19:25 51.22405 5.41399 1388 ft 171 kts 194°
2026-04-27 19:26 51.21270 5.40826 1321 ft 172 kts 195°
2026-04-27 19:26 51.20127 5.40251 1241 ft 172 kts 195°
2026-04-27 19:26 51.19013 5.39693 1129 ft 161 kts 195°
2026-04-27 19:26 51.17974 5.39177 1028 ft 152 kts 194°
2026-04-27 19:27 51.16980 5.38691 924 ft 147 kts 194°
2026-04-27 19:27 51.15995 5.38423 805 ft 141 kts 167°
2026-04-27 19:27 51.15263 5.39279 696 ft 128 kts 111°
2026-04-27 19:27 51.15022 5.40601 701 ft 122 kts 103°
2026-04-27 19:28 51.14780 5.41853 691 ft 109 kts 99°
2026-04-27 19:28 51.14811 5.42950 526 ft 100 kts 64°
2026-04-27 19:28 51.15056 5.43937 425 ft 83 kts 65°
2026-04-27 19:28 51.15410 5.44761 326 ft 98 kts 48°
2026-04-27 19:29 51.15847 5.45590 259 ft 94 kts 50°
2026-04-27 19:29 51.16225 5.46304 198 ft 74 kts 50°
2026-04-27 19:29 51.16543 5.46904 198 ft 85 kts 50°
2026-04-27 19:29 51.16971 5.47695 354 ft 102 kts 49°
2026-04-27 19:30 51.17447 5.48594 581 ft 110 kts 50°
2026-04-27 19:30 51.17509 5.49799 800 ft 122 kts 113°
2026-04-27 19:30 51.16768 5.50522 986 ft 140 kts 170°
2026-04-27 19:30 51.15796 5.50005 990 ft 157 kts 213°
2026-04-27 19:31 51.14944 5.48867 991 ft 162 kts 220°
2026-04-27 19:31 51.14092 5.47663 993 ft 164 kts 221°
2026-04-27 19:31 51.13225 5.46459 993 ft 166 kts 220°
2026-04-27 19:31 51.12360 5.45257 993 ft 165 kts 220°
2026-04-27 19:32 51.11495 5.44049 992 ft 165 kts 221°
2026-04-27 19:32 51.10631 5.42849 1042 ft 162 kts 221°
2026-04-27 19:32 51.09808 5.41702 1189 ft 156 kts 220°
2026-04-27 19:32 51.09000 5.40569 1340 ft 154 kts 220°
2026-04-27 19:33 51.08211 5.39438 1492 ft 152 kts 221°
2026-04-27 19:33 51.07688 5.38693 1593 ft 152 kts 220°
2026-04-27 19:33 51.06636 5.37181 1801 ft 153 kts 220°
2026-04-27 19:33 51.05843 5.36041 1960 ft 154 kts 220°
2026-04-27 19:34 51.05035 5.34876 1988 ft 161 kts 221°
2026-04-27 19:34 51.04201 5.33675 1992 ft 166 kts 221°
2026-04-27 19:34 51.03341 5.32430 1991 ft 168 kts 221°
2026-04-27 19:34 51.02473 5.31185 1994 ft 169 kts 220°
2026-04-27 19:35 51.01597 5.29928 1993 ft 170 kts 221°
2026-04-27 19:35 51.00719 5.28678 1993 ft 170 kts 220°
2026-04-27 19:35 50.99840 5.27418 1993 ft 170 kts 221°
2026-04-27 19:35 50.98956 5.26155 1992 ft 171 kts 221°
2026-04-27 19:36 50.98067 5.24891 1993 ft 171 kts 221°
2026-04-27 19:36 50.97183 5.23625 1992 ft 171 kts 221°
2026-04-27 19:36 50.96300 5.22363 1993 ft 171 kts 220°
2026-04-27 19:36 50.95422 5.21092 1994 ft 171 kts 221°
2026-04-27 19:37 50.94535 5.19829 1996 ft 171 kts 220°
2026-04-27 19:37 50.93654 5.18566 1994 ft 170 kts 220°
2026-04-27 19:37 50.92780 5.17312 1992 ft 169 kts 221°
2026-04-27 19:37 50.91914 5.16081 1990 ft 169 kts 220°
2026-04-27 19:38 50.91038 5.14838 1992 ft 169 kts 220°
2026-04-27 19:38 50.90162 5.13591 1992 ft 169 kts 220°
2026-04-27 19:38 50.89584 5.12768 1991 ft 169 kts 220°
2026-04-27 19:38 50.88711 5.11520 1992 ft 169 kts 220°
2026-04-27 19:39 50.87840 5.10268 1989 ft 169 kts 221°
2026-04-27 19:39 50.86957 5.09000 1882 ft 174 kts 221°
2026-04-27 19:39 50.85750 5.07287 1714 ft 177 kts 221°
2026-04-27 19:39 50.84829 5.05983 1583 ft 177 kts 221°
2026-04-27 19:40 50.84205 5.05108 1500 ft 177 kts 220°
2026-04-27 19:40 50.83281 5.03814 1372 ft 178 kts 221°
2026-04-27 19:40 50.82366 5.02543 1244 ft 177 kts 221°
2026-04-27 19:40 50.81483 5.01194 1121 ft 177 kts 225°
2026-04-27 19:41 50.80605 4.99825 1003 ft 176 kts 225°
2026-04-27 19:41 50.79871 4.98342 985 ft 168 kts 251°
2026-04-27 19:41 50.79926 4.96686 984 ft 143 kts 301°
2026-04-27 19:41 50.80459 4.95442 987 ft 132 kts 309°
2026-04-27 19:42 50.80964 4.94279 987 ft 124 kts 310°
2026-04-27 19:42 50.81448 4.93184 986 ft 119 kts 310°
2026-04-27 19:42 50.81902 4.92118 989 ft 116 kts 308°
2026-04-27 19:42 50.81964 4.90862 987 ft 125 kts 245°
2026-04-27 19:43 50.81269 4.90118 987 ft 125 kts 183°
2026-04-27 19:43 50.80401 4.90069 989 ft 125 kts 179°
2026-04-27 19:43 50.79594 4.90349 994 ft 120 kts 145°
2026-04-27 19:43 50.78860 4.90977 995 ft 120 kts 147°
2026-04-27 19:44 50.78152 4.91561 845 ft 107 kts 146°
2026-04-27 19:44 50.77595 4.92139 711 ft 99 kts 130°
2026-04-27 19:44 50.77336 4.93081 660 ft 93 kts 86°
2026-04-27 19:44 50.77501 4.94079 520 ft 96 kts 60°
2026-04-27 19:45 50.77827 4.94916 326 ft 90 kts 57°
2026-04-27 19:45 50.78142 4.95717 254 ft 83 kts 57°
2026-04-27 19:45 50.78298 4.96624 380 ft 95 kts 105°
2026-04-27 19:45 50.77714 4.97268 565 ft 118 kts 171°
2026-04-27 19:46 50.76923 4.96766 737 ft 132 kts 216°
2026-04-27 19:46 50.76157 4.95920 926 ft 136 kts 214°
2026-04-27 19:46 50.75392 4.94924 959 ft 152 kts 229°
2026-04-27 19:46 50.75132 4.93434 884 ft 132 kts 284°
2026-04-27 19:47 50.75644 4.92487 798 ft 110 kts 346°
2026-04-27 19:47 50.76326 4.92538 773 ft 88 kts 10°
2026-04-27 19:47 50.76880 4.92906 635 ft 89 kts 32°
2026-04-27 19:47 50.77337 4.93581 513 ft 93 kts 58°
2026-04-27 19:48 50.77658 4.94466 402 ft 91 kts 59°
2026-04-27 19:48 50.77984 4.95321 261 ft 84 kts 57°
2026-04-27 19:48 50.78277 4.96095 253 ft 93 kts 58°
2026-04-27 19:48 50.78867 4.96562 444 ft 109 kts 352°
2026-04-27 19:49 50.79517 4.95838 592 ft 125 kts 320°
2026-04-27 19:49 50.80208 4.94846 576 ft 142 kts 321°
2026-04-27 19:49 50.80971 4.93759 505 ft 152 kts 320°
2026-04-27 19:49 50.81627 4.92488 549 ft 151 kts 276°
2026-04-27 19:50 50.81048 4.92234 535 ft 110 kts 115°
2026-04-27 19:50 50.80663 4.93162 481 ft 95 kts 128°
2026-04-27 19:50 50.80271 4.93678 415 ft 90 kts 145°
2026-04-27 19:50 50.80175 4.93764 373 ft 93 kts 148°
2026-04-27 19:52 50.79635 4.94240 429 ft 103 kts 121°
2026-04-27 19:53 50.78528 4.95636 241 ft 114 kts 166°
2026-04-27 19:53 50.77843 4.95849 283 ft 99 kts 167°
2026-04-27 19:53 50.77103 4.96065 439 ft 117 kts 167°
2026-04-27 19:54 50.76243 4.96251 601 ft 130 kts 172°
2026-04-27 19:54 50.75346 4.95990 791 ft 138 kts 201°
2026-04-27 19:54 50.74390 4.95436 799 ft 153 kts 200°
2026-04-27 19:54 50.73342 4.95122 784 ft 158 kts 169°
2026-04-27 19:55 50.72460 4.96026 788 ft 153 kts 121°
2026-04-27 19:55 50.72303 4.97618 777 ft 150 kts 73°
2026-04-27 19:55 50.72954 4.98816 788 ft 148 kts 24°
2026-04-27 19:55 50.73875 4.98383 929 ft 147 kts 322°
2026-04-27 19:56 50.74545 4.97597 970 ft 106 kts 325°
2026-04-27 19:56 50.75095 4.96982 905 ft 102 kts 336°
2026-04-27 19:56 50.75755 4.96536 697 ft 97 kts 349°
2026-04-27 19:56 50.76391 4.96290 629 ft 93 kts 353°
2026-04-27 19:57 50.76992 4.96109 415 ft 88 kts 354°
2026-04-27 19:57 50.77621 4.95927 298 ft 90 kts 353°
2026-04-27 19:57 50.78159 4.95766 235 ft 59 kts 350°
2026-04-27 19:57 50.78407 4.95690 231 ft 28 kts 348°
2026-04-27 19:58 50.78530 4.95638 225 ft 12 kts 338°
2026-04-27 19:58 50.78571 4.95559 222 ft 12 kts 249°
2026-04-27 19:58 50.78521 4.95476 227 ft 9 kts 195°
2026-04-27 19:58 50.78443 4.95446 231 ft 15 kts 192°
2026-04-27 19:59 50.78324 4.95397 237 ft 15 kts 213°
2026-04-27 19:59 50.78275 4.95329 239 ft 9 kts 221°
2026-04-27 19:59 50.78232 4.95267 241 ft 5 kts 231°
2026-04-27 19:59 50.78236 4.95207 241 ft 3 kts 263°
2026-04-27 20:00 50.78202 4.95160 241 ft 10 kts 221°
2026-04-27 20:00 50.78181 4.95129 241 ft 0 kts 224°